Location: Eckley Miners' Village
(40.9930°N, 75.8630°W)
Time: 09:03:18
(UTC-05:00)

Explorer 7 - Visible Passes

Search period start: 10 December 2025 00:00
Search period end: 20 December 2025 00:00
Orbit: 436 x 554 km, 50.3° (Epoch: 10 December)

Date Brightness Start Highest point End Pass type
(mag) Time Alt. Az. Time Alt. Az. Time Alt. Az.
10 Dec 6.6 17:50:33 10° SW 17:54:02 55° SE 17:55:30 30° ENE visible
10 Dec 9.7 19:29:39 10° W 19:30:01 12° W 19:30:01 12° W visible
11 Dec 6.7 17:27:07 10° SW 17:30:37 55° SE 17:33:13 16° ENE visible
11 Dec 8.9 19:06:13 10° W 19:07:44 20° WNW 19:07:44 20° WNW visible
12 Dec 6.7 17:03:39 10° SW 17:07:10 55° SE 17:10:37 10° ENE visible
12 Dec 8.0 18:42:45 10° W 18:45:21 27° NW 18:45:21 27° NW visible
13 Dec 7.7 18:19:15 10° W 18:22:24 29° NNW 18:22:55 28° N visible
14 Dec 7.8 17:55:43 10° W 17:58:53 29° NNW 18:00:24 21° NNE visible
15 Dec 7.8 17:32:08 10° W 17:35:20 29° NNW 17:37:51 14° NE visible
15 Dec 9.5 19:12:13 10° NW 19:12:21 11° NW 19:12:21 11° NW visible
16 Dec 7.7 17:08:32 10° W 17:11:45 30° NNW 17:14:54 10° NE visible
16 Dec 8.9 18:48:38 10° NW 18:49:45 15° NNW 18:49:45 15° NNW visible
17 Dec 8.4 18:25:00 10° NW 18:27:07 17° N 18:27:07 17° N visible
18 Dec 8.3 18:01:20 10° NW 18:03:49 18° N 18:04:28 17° NNE visible
19 Dec 8.3 17:37:38 10° NW 17:40:09 18° N 17:41:49 14° NNE visible
